This is the latest recevied weather packets stored in our database for station/object KI5NXU. If no packets are shown the sender has not sent any weather packets the latest 10 day(s).
| Time | Temp. | Humidity | Pressure | Rain* | Wind** | Luminosity | Snow |
|---|---|---|---|---|---|---|---|
| 1778010997 | 30° C | 46% | 1004.9 hPa | 0 mm | - | 765 W/m² | - |
| 1778010695 | 29.44° C | 42% | 1004.9 hPa | 0 mm | - | 695 W/m² | - |
| 1778010392 | 29.44° C | 41% | 1005 hPa | 0 mm | - | 701 W/m² | - |
| 1778010087 | 29.44° C | 41% | 1005 hPa | 0 mm | - | 750 W/m² | - |
| 1778009784 | 28.89° C | 43% | 1005 hPa | 0 mm | - | 773 W/m² | - |
| 1778009481 | 28.33° C | 42% | 1005.1 hPa | 0 mm | - | 334 W/m² | - |
| 1778009180 | 28.33° C | 43% | 1005 hPa | 0 mm | - | 501 W/m² | - |
| 1778008877 | 28.33° C | 41% | 1005 hPa | 0 mm | - | 387 W/m² | - |
| 1778008576 | 28.89° C | 40% | 1005 hPa | 0 mm | - | 401 W/m² | - |
| 1778008273 | 30.56° C | 50% | 1004.7 hPa | 0 mm | - | 382 W/m² | - |
| 1778007969 | 30.56° C | 49% | 1004.5 hPa | 0 mm | - | 534 W/m² | - |
| 1778007664 | 30.56° C | 48% | 1004.5 hPa | 0 mm | - | 471 W/m² | - |
| 1778007361 | 30° C | 50% | 1004.7 hPa | 0 mm | - | 374 W/m² | - |
| 1778007057 | 30.56° C | 57% | 1004.8 hPa | 0 mm | - | 402 W/m² | - |
| 1778006754 | 30° C | 55% | 1004.4 hPa | 0 mm | - | 642 W/m² | - |
| 1778006451 | 30° C | 56% | 1004.9 hPa | 0 mm | - | 514 W/m² | - |
| 1778006147 | 30.56° C | 54% | 1004.8 hPa | 0 mm | - | 563 W/m² | - |
| 1778005845 | 30° C | 54% | 1004.9 hPa | 0 mm | - | 551 W/m² | - |
| 1778005541 | 30° C | 55% | 1004.8 hPa | 0 mm | - | 758 W/m² | - |
| 1778005238 | 30° C | 58% | 1004.8 hPa | 0 mm | - | 642 W/m² | - |
| 1778004935 | 29.44° C | 59% | 1004.7 hPa | 0 mm | - | 576 W/m² | - |
| 1778004633 | 30° C | 56% | 1004.6 hPa | 0 mm | - | 505 W/m² | - |
| 1778004328 | 29.44° C | 58% | 1004.7 hPa | 0 mm | - | 777 W/m² | - |
| 1778004027 | 28.89° C | 57% | 1004.7 hPa | 0 mm | - | 688 W/m² | - |
| 1778003726 | 28.89° C | 58% | 1004.7 hPa | 0 mm | - | 432 W/m² | - |
* Rain latest hour (hover to see other rain measurements)
** Current wind speed in m/s (hover to see current wind gust speed)